World > North America > United States > New York > Ballston Spa

Ballston Spa, NY Hourly Weather Conditions

Feedback E-mail the Weather

Quick WX

Ballston Spa, NY Weather Maps

°F °C°F °C
Ballston Spa Weather Map
UTC Time: 2/8/2023, 17:02
Your Time:

Ballston Spa, NY Regional Weather

Expires:202302081700;;012363
ASUS41 KALY 081610
RWRALY

NEW YORK STATE HOURLY WEATHER ROUNDUP
NATIONAL WEATHER SERVICE ALBANY NY
1100 AM EST WED FEB 08 2023

NOTE: "FAIR" INDICATES FEW OR NO CLOUDS BELOW 12,000 FEET WITH NO
SIGNIFICANT WEATHER AND/OR NO OBSTRUCTIONS TO VISIBILITY.


NYZ032-033-038>043-046>054-057>066-NYZ062>081-082-084-081700-
EAST

  
CITY           SKY/WX    TMP DP  RH WIND       PRES   REMARKS
ALBANY         PTSUNNY   41  27  57 W13G22    30.20R                  
GLENS FALLS    CLOUDY    39  25  57 SW7       30.16R WCI  34          
POUGHKEEPSIE   PTSUNNY   45  32  60 N7        30.20R                  
NEWBURGH       MOSUNNY   45  30  57 NW13      30.19R                  
MONTGOMERY     MOSUNNY   43  29  57 NW13G18   30.20R                  
WHITE PLAINS   MOSUNNY   46  30  53 W13       30.19R                  
ISLIP          MOSUNNY   49  31  49 NW16      30.19R                  
NEW YORK CITY  MOSUNNY   46  27  47 NW20G32   30.22R                  
CENTRAL PARK   MOSUNNY   46  26  45 NW12G28   30.24R                  
$$


SKY/WX - Weather  TMP - Temperature  DP - Dew Point  RH - Humidity
WIND - Wind Direction/Speed PRES - Barometric Pressure VSB - Visibility
WCI - Wind Chill Index E13G22 Wind - East Wind 13 mph/Gusts of 22 mph

Trending Headlines

Trending Entertainment Headlines

Ballston Spa Radar Loop

Use the map search tool if you want to place a location marker on the radar map...

Ballston Spa Quick Facts

National Two Day Weather Forecast


E-mail the Ballston Spa Weather Forecast

Voice your opinion or tell us about page issues...